TimeCST,TemperatureF,Dew PointF,Humidity,Sea Level PressureIn,VisibilityMPH,Wind Direction,Wind SpeedMPH,Gust SpeedMPH,PrecipitationIn,Events,Conditions,WindDirDegrees,DateUTC
12:15 AM,32.0,28.4,87,30.33,10.0,NNW,5.8,-,N/A,,Clear,330,2013-01-06 06:15:00
12:35 AM,32.0,26.6,80,30.32,10.0,NNW,6.9,-,N/A,,Clear,330,2013-01-06 06:35:00
12:55 AM,32.0,26.6,80,30.32,10.0,NNW,6.9,-,N/A,,Clear,330,2013-01-06 06:55:00
1:15 AM,32.0,26.6,80,30.33,10.0,NNW,6.9,-,N/A,,Clear,330,2013-01-06 07:15:00
1:35 AM,32.0,26.6,80,30.33,10.0,NNW,5.8,-,N/A,,Clear,330,2013-01-06 07:35:00
1:55 AM,32.0,26.6,80,30.33,10.0,North,8.1,-,N/A,,Clear,350,2013-01-06 07:55:00
2:15 AM,32.0,26.6,80,30.34,10.0,North,6.9,-,N/A,,Clear,360,2013-01-06 08:15:00
2:35 AM,33.8,28.4,81,30.34,10.0,North,8.1,-,N/A,,Clear,350,2013-01-06 08:35:00
2:55 AM,33.8,28.4,81,30.34,10.0,North,8.1,-,N/A,,Clear,350,2013-01-06 08:55:00
3:15 AM,32.0,28.4,87,30.34,10.0,North,5.8,-,N/A,,Clear,350,2013-01-06 09:15:00
3:35 AM,33.8,28.4,81,30.34,10.0,North,8.1,-,N/A,,Clear,350,2013-01-06 09:35:00
3:55 AM,33.8,28.4,81,30.34,10.0,North,8.1,-,N/A,,Clear,350,2013-01-06 09:55:00
4:15 AM,33.8,28.4,81,30.34,10.0,North,8.1,-,N/A,,Clear,350,2013-01-06 10:15:00
4:35 AM,33.8,28.4,81,30.35,10.0,North,8.1,-,N/A,,Clear,360,2013-01-06 10:35:00
4:55 AM,35.6,28.4,75,30.35,10.0,NNW,5.8,-,N/A,,Clear,340,2013-01-06 10:55:00
5:15 AM,32.0,28.4,87,30.35,10.0,NNW,6.9,-,N/A,,Clear,330,2013-01-06 11:15:00
5:35 AM,32.0,28.4,87,30.35,10.0,NW,5.8,-,N/A,,Clear,320,2013-01-06 11:35:00
5:55 AM,32.0,26.6,80,30.36,10.0,NNW,5.8,-,N/A,,Clear,330,2013-01-06 11:55:00
6:15 AM,33.8,28.4,81,30.36,10.0,North,8.1,-,N/A,,Clear,360,2013-01-06 12:15:00
6:35 AM,35.6,28.4,75,30.36,10.0,North,8.1,-,N/A,,Clear,10,2013-01-06 12:35:00
6:55 AM,33.8,28.4,81,30.36,10.0,NW,3.5,-,N/A,,Clear,320,2013-01-06 12:55:00
7:15 AM,32.0,28.4,87,30.37,10.0,North,5.8,-,N/A,,Clear,360,2013-01-06 13:15:00
7:55 AM,33.8,28.4,81,30.38,10.0,North,9.2,-,N/A,,Clear,360,2013-01-06 13:55:00
8:15 AM,35.6,28.4,75,30.39,10.0,North,8.1,-,N/A,,Clear,360,2013-01-06 14:15:00
8:35 AM,37.4,26.6,65,30.40,10.0,North,10.4,-,N/A,,Clear,10,2013-01-06 14:35:00
8:55 AM,39.2,26.6,61,30.40,10.0,NNE,10.4,-,N/A,,Clear,20,2013-01-06 14:55:00
9:35 AM,41.0,26.6,57,30.42,10.0,NNE,9.2,-,N/A,,Clear,30,2013-01-06 15:35:00
9:55 AM,42.8,26.6,53,30.42,10.0,NNE,9.2,-,N/A,,Clear,20,2013-01-06 15:55:00
10:15 AM,44.6,26.6,49,30.42,10.0,North,10.4,-,N/A,,Clear,10,2013-01-06 16:15:00
10:35 AM,44.6,24.8,46,30.43,10.0,NNE,6.9,-,N/A,,Clear,20,2013-01-06 16:35:00
10:55 AM,46.4,24.8,43,30.42,10.0,North,9.2,-,N/A,,Clear,10,2013-01-06 16:55:00
11:15 AM,48.2,24.8,40,30.42,10.0,North,8.1,-,N/A,,Clear,10,2013-01-06 17:15:00
11:35 AM,50.0,24.8,37,30.41,10.0,North,11.5,-,N/A,,Clear,350,2013-01-06 17:35:00
11:55 AM,50.0,24.8,37,30.40,10.0,North,10.4,-,N/A,,Clear,10,2013-01-06 17:55:00
12:15 PM,50.0,24.8,37,30.39,10.0,NNE,10.4,-,N/A,,Clear,30,2013-01-06 18:15:00
12:35 PM,51.8,26.6,38,30.38,10.0,NNE,10.4,-,N/A,,Clear,30,2013-01-06 18:35:00
12:55 PM,51.8,26.6,38,30.37,10.0,NNE,10.4,-,N/A,,Clear,20,2013-01-06 18:55:00
1:15 PM,51.8,26.6,38,30.36,10.0,North,9.2,-,N/A,,Clear,10,2013-01-06 19:15:00
1:35 PM,53.6,26.6,35,30.35,10.0,North,9.2,-,N/A,,Clear,350,2013-01-06 19:35:00
1:55 PM,53.6,26.6,35,30.35,10.0,North,4.6,-,N/A,,Clear,360,2013-01-06 19:55:00
2:15 PM,53.6,26.6,35,30.34,10.0,NNE,8.1,-,N/A,,Clear,30,2013-01-06 20:15:00
2:55 PM,55.4,24.8,31,30.34,10.0,North,6.9,-,N/A,,Clear,10,2013-01-06 20:55:00
3:15 PM,55.4,24.8,31,30.34,10.0,NNE,6.9,-,N/A,,Clear,20,2013-01-06 21:15:00
3:35 PM,55.4,24.8,31,30.33,10.0,North,3.5,-,N/A,,Clear,10,2013-01-06 21:35:00
3:55 PM,55.4,23.0,29,30.33,10.0,ENE,3.5,-,N/A,,Clear,60,2013-01-06 21:55:00
4:15 PM,53.6,23.0,30,30.33,10.0,ENE,4.6,-,N/A,,Clear,60,2013-01-06 22:15:00
4:35 PM,53.6,23.0,30,30.33,10.0,NNE,5.8,-,N/A,,Clear,30,2013-01-06 22:35:00
4:55 PM,53.6,23.0,30,30.33,10.0,NE,5.8,-,N/A,,Clear,50,2013-01-06 22:55:00
5:15 PM,51.8,23.0,33,30.33,10.0,ENE,4.6,-,N/A,,Clear,60,2013-01-06 23:15:00
5:35 PM,50.0,23.0,35,30.33,10.0,ENE,3.5,-,N/A,,Clear,60,2013-01-06 23:35:00
5:55 PM,48.2,23.0,37,30.33,10.0,ESE,4.6,-,N/A,,Clear,110,2013-01-06 23:55:00
6:15 PM,46.4,24.8,43,30.33,10.0,East,4.6,-,N/A,,Clear,90,2013-01-07 00:15:00
6:35 PM,44.6,24.8,46,30.33,10.0,East,4.6,-,N/A,,Clear,90,2013-01-07 00:35:00
6:55 PM,44.6,24.8,46,30.34,10.0,ENE,3.5,-,N/A,,Clear,70,2013-01-07 00:55:00
7:15 PM,42.8,24.8,49,30.33,10.0,ENE,4.6,-,N/A,,Clear,70,2013-01-07 01:15:00
7:35 PM,42.8,24.8,49,30.33,10.0,Calm,Calm,-,N/A,,Clear,0,2013-01-07 01:35:00
7:55 PM,39.2,24.8,56,30.33,10.0,Calm,Calm,-,N/A,,Clear,0,2013-01-07 01:55:00
8:15 PM,39.2,24.8,56,30.34,10.0,East,3.5,-,N/A,,Clear,80,2013-01-07 02:15:00
8:55 PM,35.6,24.8,65,30.34,10.0,Calm,Calm,-,N/A,,Clear,0,2013-01-07 02:55:00
9:35 PM,35.6,24.8,65,30.34,10.0,East,4.6,-,N/A,,Clear,90,2013-01-07 03:35:00
9:55 PM,35.6,24.8,65,30.34,10.0,East,4.6,-,N/A,,Clear,90,2013-01-07 03:55:00
10:15 PM,32.0,23.0,69,30.35,10.0,Calm,Calm,-,N/A,,Clear,0,2013-01-07 04:15:00
10:35 PM,32.0,24.8,75,30.34,10.0,Calm,Calm,-,N/A,,Clear,0,2013-01-07 04:35:00
10:55 PM,33.8,24.8,70,30.34,10.0,Calm,Calm,-,N/A,,Clear,0,2013-01-07 04:55:00
11:35 PM,33.8,23.0,65,30.34,10.0,Calm,Calm,-,N/A,,Clear,0,2013-01-07 05:35:00
11:55 PM,32.0,23.0,69,30.34,10.0,Calm,Calm,-,N/A,,Clear,0,2013-01-07 05:55:00